This demonstration page uses our WeatherBlox Daily Observations layout. Learn more.

Left ArrowRight Arrow

39.01783, -85.05884

Hourly Observations for May 3, 2018

Temp ( °F °C ) Dew Point ( °F °C ) Humidity (%) Winds ( mph kmh ) Pressure ( in mb ) Visibility ( mi km ) Precip ( " mm )
12:52 am 00:52 Cloudy 72 22.2 58 14.4 61 61 SSW 9 15 30.04 1017 10 16 0.00 0.00
1:52 am 01:52 Cloudy 73 22.8 57 13.9 57 57 SW 9 15 30.04 1017 10 16 0.00 0.00
2:52 am 02:52 Cloudy 71 21.7 58 14.4 63 63 SSW 8 13 30.03 1017 10 16 0.00 0.00
3:52 am 03:52 Cloudy 71 21.7 57 13.9 61 61 SSW 10 17 30.04 1017 10 16 0.00 0.00
4:52 am 04:52 Cloudy 70 21.1 57 13.9 64 64 SSW 8 13 30.03 1017 10 16 0.00 0.00
5:52 am 05:52 Cloudy 70 21.1 57 13.9 64 64 SSW 10 17 30.02 1017 10 16 0.00 0.00
6:52 am 06:52 Cloudy 68 20 57 13.9 68 68 S 10 17 30.02 1017 10 16 0.00 0.00
7:52 am 07:52 Cloudy 70 21.1 56 13.3 61 61 SSW 14 22 30.04 1017 10 16 0.00 0.00
8:52 am 08:52 Mostly Cloudy 71 21.7 57 13.9 61 61 SSW 14 22 30.03 1017 10 16 0.00 0.00
9:52 am 09:52 Cloudy 73 22.8 57 13.9 57 57 SSW 17 28 30.03 1017 10 16 0.00 0.00
10:52 am 10:52 Cloudy 76 24.4 59 15 56 56 SSW 16 26 30.05 1018 10 16 0.00 0.00
11:19 am 11:19 Cloudy with Thunderstorms 75 23.9 59 15 58 58 SW 14 22 30.09 1019 10 16 0.00 0.00
11:32 am 11:32 Cloudy with Thunderstorms 72 22.2 60 15.6 66 66 W 28 44 30.09 1019 3 4 0.01 0.25
11:37 am 11:37 Windy with Storms Likely 69 20.6 61 16.1 76 76 W 22 35 30.09 1019 4 6 0.04 1.02
11:52 am 11:52 Cloudy with Light Rain 69 20.6 62 16.7 78 78 SW 15 24 30.10 1019 8 13 0.04 1.02
12:52 pm 12:52 Mostly Cloudy 72 22.2 64 17.8 76 76 SW 10 17 30.06 1018 10 16 0.01 0.25
1:52 pm 13:52 Mostly Cloudy 76 24.4 63 17.2 64 64 SW 10 17 30.04 1017 10 16 0.00 0.00
2:52 pm 14:52 Mostly Cloudy 77 25 60 15.6 56 56 SW 18 30 30.04 1017 10 16 0.00 0.00
3:52 pm 15:52 Partly Cloudy 79 26.1 61 16.1 54 54 WSW 20 31 30.04 1017 10 16 0.00 0.00
4:52 pm 16:52 Mostly Cloudy 79 26.1 61 16.1 54 54 WSW 18 30 30.04 1017 10 16 0.00 0.00
5:52 pm 17:52 Cloudy 74 23.3 60 15.6 62 62 SW 14 22 30.05 1018 10 16 0.00 0.00
6:52 pm 18:52 Cloudy 72 22.2 61 16.1 68 68 SW 12 19 30.04 1017 10 16 0.00 0.00
7:52 pm 19:52 Cloudy 71 21.7 62 16.7 73 73 W 6 9 30.04 1017 10 16 0.00 0.00
8:52 pm 20:52 Cloudy 70 21.1 61 16.1 73 73 SSW 6 9 30.04 1017 10 16 0.00 0.00
9:52 pm 21:52 Cloudy 69 20.6 61 16.1 76 76 SSW 5 7 30.03 1017 10 16 0.00 0.03
10:52 pm 22:52 Cloudy 69 20.6 61 16.1 76 76 S 7 11 30.01 1016 10 16 0.00 0.00
11:52 pm 23:52 Cloudy 67 19.4 61 16.1 81 81 S 9 15 29.95 1014 10 16 0.00 0.00

Powered by AerisWeather